Regional Weather Roundup
Issued by NWS Cleveland, OH

Home | Current Version | Previous Version | Text Only | Print | Product List | Glossary Off
Versions: 1 2 3 4 5 6 7 8 9 10 11 12 13 14 15 16 17 18 19 20 21 22 23 24 25 26 27 28 29 30 31 32 33 34 35 36 37 38 39 40 41 42 43 44 45 46 47 48 49 50

000
ASUS41 KCLE 031900
RWRCLE
OHIO REGIONAL WEATHER ROUNDUP
NATIONAL WEATHER SERVICE WILMINGTON, OH
300 PM EDT SUN MAY 03 2015

NOTE: "FAIR" INDICATES FEW OR NO CLOUDS BELOW 12,000 FEET WITH NO
SIGNIFICANT WEATHER AND/OR OBSTRUCTIONS TO VISIBILITY.

OHZ001>008-015>018-024>027-034-035-043-044-032000-
   NORTHWEST OHIO

CITY           SKY/WX    TMP DP  RH WIND       PRES   REMARKS
DEFIANCE       SUNNY     78  46  32 SW10      30.04F
FINDLAY        MOSUNNY   78  44  29 SW16G23   30.06F
TOLEDO EXPRESS SUNNY     78  41  26 W15G28    30.04F
TOLEDO EXEC    SUNNY     78  39  24 SW16G28   30.05S
LIMA           PTSUNNY   75  46  35 SW13      30.07F
$$

OHZ009>014-019>023-028>033-038-089-032000-
   NORTHEAST OHIO

CITY           SKY/WX    TMP DP  RH WIND       PRES   REMARKS
CLE-HOPKINS    MOSUNNY   77  44  30 SW15G21   30.09F
CLE-LAKEFRONT  SUNNY     73  45  36 N6        30.07S
CUY CO. ARPT   MOSUNNY   77  48  36 NW12      30.09F
LORAIN-ELYRIA  MOSUNNY   77  41  27 SW13G21   30.07F
ASHTABULA      MOSUNNY   76  40  27 VRB5      30.09S
AKRON-CANTON   MOSUNNY   75  40  28 W14       30.10S
WOOSTER        NOT AVBL
MANSFIELD      SUNNY     76  43  30 SW12G24   30.10F
YOUNGSTOWN     PTSUNNY   74  40  29 SW7       30.10S
$$

OHZ042-051>053-060>062-070>072-077>081-032000-
  SOUTHWEST OHIO

CITY           SKY/WX    TMP DP  RH WIND       PRES   REMARKS
CINC-COVINGTON MOSUNNY   75  48  38 S7        30.11F
CINC-LUNKEN    MOSUNNY   76  50  40 S14G21    30.10F
HAMILTON       MOSUNNY   78  47  33 SW9       30.10F
DAYTON         NOT AVBL
WRIGHT-PAT AFB NOT AVBL
DAYTON GENERAL MOSUNNY   75  45  34 W10       30.09F
WILMINGTON     MOSUNNY   73  45  36 S16       30.10F
$$

OHZ036-037-039>041-045>050-054>059-063>069-073>076-082>088-032000-
  CENTRAL AND SOUTHEAST OHIO

CITY           SKY/WX    TMP DP  RH WIND       PRES   REMARKS
COLUMBUS       PTSUNNY   77  45  32 SW13G21   30.10F
OSU AIRPORT    MOSUNNY   76  45  33 SW8       30.10F
BOLTON FIELD   MOSUNNY   75  46  35 SW12G24   30.11F
RICKENBACK AFB NOT AVBL
NEWARK         SUNNY     75  47  36 W10       30.10F
MARION         CLOUDY    75  44  33 SW16G25   30.09F
LANCASTER      MOSUNNY   76  46  34 VRB6G20   30.12F
ZANESVILLE     MOSUNNY   74  40  29 VRB7      30.11F
NEW PHILLY     MOSUNNY   79  43  27 SW9G21    30.11F
$$


USA.gov is the U.S. government's official web portal to all federal, state and local government web resources and services.